QPF
0.00 0.00 0.00 0.00 0.01 0.03 0.03 0.01 0.00 0.00 0.00 0.00 0.00 0.00 0.00 0.02 0.04 0.05 0.06 0.03 0.05 0.06 0.02 0.00 0.00 0.00 0.01 0.01 0.01 0.01 0.04 0.03 0.04 0.07 0.05 0.01 0.01 0.01 0.01 0.00 0.00 0.00 0.01 0.01 0.04 0.07 0.06 0.01 0.00 0.00 0.00 0.00 0.00 0.02
0.00 0.00 0.00 0.00 0.00 0.00 0.01 0.01 0.00 0.00 0.00 0.00 0.00 0.00 0.00 0.00 0.02 0.06 0.18 0.06 0.03 0.05 0.03 0.00 0.00 0.00 0.00 0.00 0.00 0.02 0.06 0.08 0.09 0.07 0.03 0.01 0.01 0.01 0.01 0.00 0.00 0.00 0.01 0.00 0.00 0.00 0.00 0.00 0.00 0.00 0.00 0.00 0.00 0.01
0.00 0.00 0.00 0.00 0.00 0.00 0.00 0.01 0.00 0.00 0.00 0.00 0.00 0.00 0.00 0.00 0.00 0.02 0.08 0.06 0.15 0.32 0.29 0.12 0.02 0.00 0.00 0.00 0.00 0.03 0.10 0.05 0.07 0.07 0.07 0.06 0.06 0.01 0.01 0.00 0.00 0.00 0.00 0.01 0.01 0.00 0.00 0.00 0.00 0.00 0.00 0.00 0.00 0.02
0.00 0.00 0.00 0.00 0.00 0.01 0.01 0.00 0.00 0.00 0.00 0.00 0.00 0.00 0.00 0.00 0.00 0.02 0.09 0.12 0.21 0.40 0.29 0.11 0.00 0.00 0.00 0.00 0.00 0.05 0.12 0.07 0.09 0.13 0.23 0.27 0.14 0.03 0.00 0.00 0.00 0.00 0.00 0.00 0.00 0.00 0.00 0.00 0.00 0.00 0.00 0.00 0.00 0.01
0.00 0.00 0.00 0.00 0.00 0.01 0.01 0.00 0.00 0.00 0.00 0.00 0.00 0.00 0.01 0.00 0.00 0.01 0.03 0.05 0.07 0.20 0.26 0.06 0.00 0.00 0.00 0.00 0.00 0.00 0.02 0.05 0.09 0.19 0.36 0.26 0.07 0.03 0.03 0.03 0.02 0.00 0.00 0.00 0.00 0.00 0.00 0.00 0.00 0.00 0.00 0.00 0.00 0.00
0.00 0.00 0.00 0.00 0.00 0.01 0.01 0.00 0.00 0.00 0.00 0.00 0.00 0.02 0.03 0.02 0.01 0.04 0.10 0.05 0.04 0.14 0.26 0.15 0.01 0.00 0.00 0.02 0.04 0.05 0.03 0.11 0.18 0.26 0.20 0.08 0.03 0.06 0.12 0.06 0.01 0.00 0.00 0.00 0.00 0.00 0.00 0.00 0.00 0.00 0.00 0.00 0.00 0.00
0.00 0.00 0.00 0.00 0.00 0.01 0.01 0.00 0.00 0.00 0.00 0.00 0.00 0.06 0.06 0.07 0.08 0.06 0.04 0.01 0.02 0.08 0.27 0.10 0.00 0.00 0.00 0.02 0.03 0.06 0.05 0.13 0.23 0.25 0.17 0.10 0.04 0.12 0.24 0.09 0.00 0.00 0.00 0.00 0.00 0.00 0.00 0.00 0.00 0.00 0.00 0.00 0.00 0.00
0.00 0.00 0.00 0.00 0.00 0.01 0.01 0.00 0.00 0.00 0.00 0.00 0.02 0.09 0.08 0.05 0.06 0.08 0.03 0.00 0.00 0.06 0.24 0.09 0.00 0.00 0.00 0.00 0.01 0.01 0.03 0.06 0.05 0.06 0.07 0.04 0.01 0.02 0.03 0.01 0.00 0.00 0.00 0.00 0.00 0.00 0.00 0.00 0.00 0.00 0.00 0.00 0.03 0.04
0.00 0.00 0.00 0.00 0.00 0.01 0.01 0.00 0.00 0.00 0.00 0.01 0.11 0.20 0.17 0.05 0.02 0.00 0.00 0.00 0.00 0.15 0.14 0.04 0.00 0.00 0.00 0.01 0.01 0.00 0.00 0.01 0.00 0.00 0.00 0.00 0.00 0.00 0.00 0.00 0.00 0.00 0.00 0.00 0.00 0.00 0.00 0.00 0.00 0.00 0.00 0.00 0.11 0.14
0.00 0.00 0.00 0.00 0.00 0.01 0.01 0.00 0.00 0.00 0.01 0.05 0.22 0.31 0.17 0.02 0.02 0.00 0.01 0.04 0.11 0.12 0.07 0.01 0.01 0.00 0.00 0.00 0.01 0.00 0.00 0.00 0.00 0.00 0.00 0.00 0.00 0.00 0.00 0.00 0.00 0.01 0.00 0.01 0.00 0.00 0.00 0.00 0.00 0.00 0.00 0.00 0.01 0.07
0.00 0.00 0.00 0.00 0.00 0.00 0.01 0.00 0.00 0.00 0.03 0.10 0.20 0.21 0.05 0.04 0.06 0.03 0.02 0.02 0.03 0.01 0.00 0.00 0.01 0.00 0.00 0.00 0.00 0.00 0.01 0.01 0.01 0.00 0.00 0.00 0.00 0.00 0.02 0.03 0.01 0.00 0.00 0.00 0.00 0.00 0.00 0.00 0.00 0.00 0.00 0.02 0.04 0.06
0.00 0.00 0.00 0.00 0.00 0.00 0.00 0.00 0.00 0.01 0.06 0.16 0.16 0.16 0.16 0.20 0.23 0.14 0.06 0.01 0.00 0.00 0.00 0.00 0.00 0.00 0.00 0.00 0.02 0.01 0.00 0.00 0.00 0.01 0.00 0.00 0.01 0.00 0.00 0.00 0.00 0.00 0.00 0.00 0.00 0.01 0.05 0.03 0.03 0.03 0.05 0.09 0.08 0.10
0.00 0.00 0.00 0.00 0.00 0.00 0.00 0.00 0.00 0.01 0.09 0.17 0.13 0.10 0.14 0.15 0.15 0.08 0.03 0.00 0.00 0.00 0.00 0.00 0.00 0.00 0.00 0.00 0.00 0.00 0.00 0.00 0.00 0.01 0.00 0.00 0.00 0.00 0.00 0.00 0.00 0.00 0.00 0.00 0.00 0.02 0.03 0.03 0.05 0.11 0.18 0.14 0.12 0.14
0.00 0.00 0.00 0.00 0.00 0.00 0.00 0.00 0.00 0.02 0.09 0.16 0.11 0.07 0.05 0.05 0.02 0.00 0.00 0.00 0.00 0.00 0.00 0.00 0.00 0.00 0.00 0.00 0.00 0.00 0.00 0.00 0.01 0.00 0.00 0.00 0.00 0.00 0.00 0.00 0.00 0.00 0.00 0.01 0.00 0.00 0.01 0.05 0.14 0.21 0.25 0.23 0.21 0.17
0.00 0.00 0.00 0.00 0.00 0.00 0.00 0.02 0.03 0.03 0.10 0.11 0.10 0.08 0.01 0.01 0.00 0.00 0.00 0.00 0.00 0.00 0.00 0.00 0.00 0.00 0.00 0.00 0.00 0.00 0.00 0.00 0.00 0.00 0.00 0.00 0.00 0.00 0.00 0.00 0.00 0.01 0.05 0.06 0.03 0.06 0.11 0.15 0.16 0.19 0.20 0.20 0.15 0.11
0.00 0.00 0.00 0.01 0.00 0.00 0.01 0.14 0.17 0.11 0.15 0.08 0.06 0.05 0.01 0.00 0.00 0.00 0.00 0.00 0.00 0.00 0.00 0.00 0.01 0.01 0.00 0.00 0.00 0.00 0.00 0.00 0.01 0.00 0.00 0.00 0.00 0.00 0.00 0.01 0.02 0.06 0.10 0.13 0.14 0.16 0.15 0.13 0.10 0.10 0.08 0.08 0.10 0.09
0.01 0.01 0.08 0.07 0.01 0.00 0.06 0.14 0.09 0.09 0.05 0.03 0.01 0.00 0.00 0.00 0.00 0.00 0.00 0.00 0.00 0.00 0.00 0.00 0.00 0.00 0.00 0.00 0.00 0.00 0.00 0.00 0.00 0.00 0.00 0.00 0.00 0.01 0.01 0.03 0.05 0.07 0.12 0.14 0.14 0.12 0.11 0.08 0.05 0.04 0.10 0.08 0.03 0.01
0.01 0.06 0.10 0.06 0.01 0.03 0.08 0.07 0.09 0.02 0.03 0.03 0.01 0.00 0.00 0.01 0.00 0.00 0.00 0.00 0.00 0.00 0.00 0.00 0.00 0.00 0.00 0.00 0.01 0.02 0.00 0.00 0.00 0.00 0.00 0.00 0.01 0.04 0.04 0.06 0.09 0.09 0.10 0.11 0.11 0.16 0.18 0.08 0.03 0.01 0.00 0.00 0.00 0.00
0.01 0.02 0.02 0.01 0.03 0.13 0.15 0.03 0.04 0.07 0.02 0.00 0.00 0.00 0.00 0.00 0.00 0.00 0.00 0.00 0.00 0.00 0.00 0.00 0.00 0.00 0.01 0.01 0.01 0.00 0.00 0.00 0.00 0.00 0.00 0.00 0.02 0.05 0.05 0.05 0.07 0.10 0.13 0.12 0.10 0.13 0.08 0.01 0.00 0.00 0.00 0.00 0.00 0.00
0.00 0.00 0.00 0.00 0.09 0.17 0.05 0.00 0.01 0.02 0.01 0.00 0.00 0.00 0.00 0.00 0.00 0.00 0.00 0.00 0.00 0.00 0.00 0.00 0.00 0.00 0.00 0.00 0.00 0.00 0.00 0.00 0.00 0.00 0.00 0.00 0.00 0.00 0.00 0.01 0.02 0.03 0.04 0.04 0.04 0.02 0.00 0.00 0.00 0.00 0.00 0.00 0.00 0.00
0.01 0.00 0.00 0.04 0.16 0.08 0.01 0.00 0.01 0.02 0.01 0.01 0.01 0.00 0.00 0.01 0.01 0.00 0.00 0.00 0.00 0.01 0.00 0.00 0.00 0.00 0.00 0.00 0.00 0.00 0.01 0.00 0.00 0.00 0.00 0.00 0.00 0.00 0.00 0.00 0.00 0.00 0.00 0.00 0.01 0.03 0.01 0.00 0.00 0.00 0.00 0.00 0.00 0.00
0.04 0.01 0.02 0.14 0.22 0.04 0.00 0.00 0.00 0.01 0.01 0.01 0.02 0.01 0.01 0.02 0.01 0.01 0.01 0.00 0.00 0.00 0.00 0.00 0.00 0.00 0.00 0.00 0.01 0.02 0.01 0.00 0.00 0.00 0.00 0.00 0.00 0.00 0.00 0.00 0.00 0.00 0.00 0.00 0.00 0.00 0.00 0.00 0.00 0.00 0.00 0.00 0.00 0.00
0.01 0.02 0.07 0.10 0.02 0.00 0.00 0.01 0.01 0.01 0.00 0.02 0.03 0.02 0.01 0.01 0.01 0.01 0.00 0.00 0.00 0.00 0.00 0.00 0.00 0.00 0.00 0.01 0.01 0.01 0.00 0.00 0.00 0.00 0.00 0.00 0.00 0.00 0.00 0.00 0.00 0.00 0.00 0.00 0.00 0.00 0.00 0.00 0.00 0.00 0.00 0.00 0.00 0.00
0.03 0.08 0.04 0.01 0.00 0.00 0.00 0.00 0.01 0.00 0.01 0.02 0.02 0.01 0.01 0.00 0.01 0.01 0.01 0.01 0.01 0.00 0.00 0.00 0.00 0.00 0.00 0.00 0.00 0.00 0.00 0.00 0.00 0.00 0.00 0.00 0.00 0.00 0.00 0.00 0.00 0.00 0.00 0.00 0.00 0.00 0.00 0.00 0.00 0.00 0.00 0.00 0.00 0.00
0.04 0.01 0.00 0.00 0.00 0.00 0.00 0.01 0.00 0.00 0.01 0.01 0.01 0.01 0.00 0.00 0.01 0.00 0.00 0.01 0.02 0.01 0.01 0.01 0.01 0.00 0.00 0.01 0.01 0.00 0.00 0.00 0.00 0.01 0.01 0.00 0.00 0.00 0.02 0.01 0.00 0.00 0.00 0.00 0.00 0.00 0.00 0.00 0.00 0.00 0.00 0.00 0.00 0.00
0.00 0.00 0.00 0.00 0.00 0.00 0.00 0.00 0.00 0.00 0.00 0.00 0.01 0.00 0.00 0.00 0.00 0.02 0.02 0.02 0.02 0.02 0.03 0.02 0.01 0.02 0.03 0.01 0.01 0.01 0.00 0.00 0.00 0.01 0.02 0.00 0.00 0.00 0.00 0.00 0.00 0.02 0.00 0.00 0.00 0.00 0.00 0.00 0.00 0.00 0.00 0.00 0.00 0.00
0.00 0.00 0.00 0.00 0.00 0.00 0.00 0.00 0.00 0.00 0.00 0.00 0.00 0.00 0.00 0.00 0.00 0.03 0.06 0.01 0.01 0.05 0.06 0.04 0.02 0.01 0.01 0.00 0.00 0.00 0.00 0.00 0.00 0.00 0.01 0.00 0.00 0.00 0.00 0.00 0.01 0.01 0.00 0.00 0.00 0.00 0.00 0.00 0.00 0.00 0.00 0.00 0.00 0.00
0.00 0.00 0.00 0.00 0.00 0.00 0.00 0.00 0.01 0.00 0.01 0.00 0.00 0.00 0.00 0.00 0.01 0.03 0.02 0.04 0.01 0.02 0.02 0.03 0.02 0.00 0.00 0.00 0.00 0.00 0.00 0.00 0.00 0.00 0.00 0.00 0.00 0.00 0.00 0.00 0.00 0.00 0.00 0.00 0.00 0.00 0.00 0.00 0.00 0.00 0.00 0.00 0.00 0.00
0.00 0.00 0.00 0.00 0.00 0.00 0.01 0.01 0.01 0.00 0.01 0.01 0.00 0.00 0.00 0.01 0.02 0.02 0.04 0.02 0.00 0.00 0.00 0.01 0.01 0.00 0.00 0.00 0.00 0.00 0.00 0.00 0.00 0.00 0.00 0.00 0.00 0.00 0.00 0.00 0.00 0.00 0.00 0.00 0.00 0.00 0.00 0.00 0.00 0.00 0.00 0.00 0.00 0.00
0.00 0.00 0.00 0.00 0.00 0.00 0.00 0.00 0.00 0.00 0.00 0.00 0.00 0.00 0.00 0.02 0.05 0.04 0.05 0.03 0.00 0.00 0.00 0.00 0.00 0.00 0.00 0.00 0.01 0.01 0.00 0.00 0.00 0.00 0.00 0.00 0.00 0.00 0.00 0.00 0.00 0.00 0.00 0.00 0.00 0.00 0.00 0.00 0.00 0.00 0.00 0.00 0.00 0.00
0.00 0.00 0.00 0.00 0.01 0.02 0.02 0.00 0.00 0.00 0.00 0.00 0.00 0.00 0.00 0.02 0.03 0.04 0.05 0.05 0.00 0.00 0.00 0.00 0.00 0.00 0.00 0.00 0.00 0.00 0.00 0.01 0.00 0.00 0.00 0.00 0.00 0.00 0.00 0.00 0.00 0.00 0.00 0.00 0.00 0.00 0.00 0.00 0.00 0.00 0.00 0.00 0.00 0.00
0.01 0.00 0.00 0.00 0.02 0.03 0.01 0.00 0.00 0.00 0.00 0.00 0.00 0.00 0.00 0.00 0.01 0.04 0.07 0.07 0.04 0.02 0.01 0.00 0.00 0.02 0.01 0.00 0.00 0.00 0.00 0.00 0.00 0.00 0.00 0.00 0.00 0.00 0.00 0.00 0.00 0.00 0.00 0.00 0.00 0.00 0.00 0.00 0.00 0.00 0.00 0.00 0.00 0.00
0.00 0.00 0.00 0.00 0.01 0.02 0.02 0.01 0.02 0.03 0.02 0.03 0.04 0.03 0.01 0.00 0.01 0.02 0.04 0.04 0.01 0.01 0.01 0.01 0.01 0.01 0.00 0.00 0.00 0.00 0.00 0.00 0.00 0.00 0.00 0.00 0.00 0.00 0.00 0.00 0.00 0.00 0.00 0.00 0.00 0.00 0.00 0.00 0.00 0.00 0.00 0.00 0.00 0.00
MSLP
1010.92 1010.85 1010.72 1010.59 1010.46 1010.41 1010.47 1010.50 1010.67 1010.89 1011.11 1011.36 1011.55 1011.78 1011.96 1012.11 1012.22 1012.60 1011.99 1012.54 1012.71 1011.19 1010.83 1010.85 1010.91 1010.84 1011.13 1010.54 1010.24 1010.26 1010.29 1009.45 1010.06 1010.62 1010.66 1010.30 1010.10 1009.41 1009.01 1008.10 1007.78 1007.99 1008.02 1007.73 1007.47 1006.81 1005.54 1003.35 1003.15 1002.96 1001.49 1001.02 1001.08 1000.74
1010.68 1010.55 1010.52 1010.40 1010.25 1010.26 1010.14 1010.04 1010.11 1010.23 1010.37 1010.50 1010.62 1010.72 1010.84 1010.86 1010.93 1011.05 1010.40 1010.55 1010.99 1010.68 1009.25 1008.87 1008.97 1008.81 1009.28 1009.40 1009.92 1009.61 1009.58 1009.58 1009.75 1009.55 1008.91 1008.45 1008.43 1008.12 1007.64 1007.10 1006.31 1006.58 1006.04 1006.04 1005.90 1003.98 1002.79 1001.82 1001.67 1001.19 1000.75 1000.59 1000.42 1000.38
1010.39 1010.25 1010.20 1010.10 1010.04 1009.97 1009.80 1009.68 1009.57 1009.57 1009.52 1009.58 1009.58 1009.53 1009.56 1009.43 1009.31 1009.32 1008.81 1008.84 1009.22 1008.86 1008.48 1008.28 1007.01 1007.80 1007.78 1008.10 1008.34 1008.96 1008.33 1008.31 1008.75 1008.95 1008.99 1008.50 1007.31 1006.51 1006.74 1005.51 1004.60 1004.95 1003.85 1004.36 1003.83 1002.24 1001.83 1001.28 1000.76 1000.48 1000.19 1000.01 999.98 999.91
1009.99 1009.94 1009.86 1009.77 1009.62 1009.65 1009.48 1009.20 1009.00 1008.80 1008.73 1008.60 1008.48 1008.28 1008.11 1007.81 1007.58 1007.22 1006.81 1007.05 1007.50 1008.09 1007.55 1006.20 1006.09 1006.02 1005.74 1006.05 1006.25 1006.58 1006.17 1007.71 1007.86 1008.39 1007.96 1007.50 1006.42 1005.59 1005.43 1004.80 1004.37 1002.64 1002.76 1002.11 1002.21 1001.37 1000.74 1000.41 999.90 999.63 999.25 998.92 999.09 998.99
1009.45 1009.44 1009.36 1009.32 1009.28 1009.21 1008.96 1008.60 1008.36 1008.08 1007.81 1007.57 1007.33 1007.02 1006.66 1006.31 1005.72 1005.56 1005.47 1005.28 1005.57 1006.61 1006.16 1005.78 1005.09 1004.26 1004.21 1004.69 1005.10 1005.54 1006.00 1006.69 1007.14 1007.39 1007.18 1006.39 1005.73 1005.56 1004.75 1004.55 1003.55 1001.74 1001.17 1001.65 1000.58 999.52 999.91 999.36 998.85 998.56 998.23 997.97 998.23 998.33
1008.89 1008.90 1008.90 1008.85 1008.85 1008.66 1008.39 1008.04 1007.68 1007.32 1006.88 1006.61 1006.31 1005.82 1005.30 1004.81 1004.18 1003.94 1004.05 1004.11 1004.63 1005.00 1006.00 1005.39 1004.65 1004.00 1003.28 1003.62 1004.15 1004.59 1005.05 1005.76 1006.10 1006.15 1005.91 1005.35 1004.91 1005.21 1004.33 1003.21 1000.40 1000.36 999.97 999.61 999.42 998.61 998.96 998.32 997.79 997.51 997.11 997.04 997.25 997.51
1008.42 1008.41 1008.31 1008.24 1008.28 1008.00 1007.76 1007.40 1006.91 1006.46 1006.07 1005.73 1005.22 1004.77 1004.45 1003.83 1003.65 1003.37 1003.28 1003.21 1003.46 1004.43 1005.32 1005.31 1004.69 1003.99 1003.91 1003.86 1004.19 1004.25 1004.58 1005.01 1005.72 1005.79 1005.42 1005.07 1004.87 1004.80 1003.40 1002.00 998.08 999.45 999.02 998.77 998.39 998.03 997.92 997.07 997.00 996.54 996.51 996.46 996.52 996.62
1007.77 1007.82 1007.70 1007.60 1007.62 1007.46 1007.16 1006.68 1006.19 1005.70 1005.31 1004.81 1004.20 1003.62 1002.93 1003.18 1003.30 1003.03 1002.68 1002.88 1003.43 1004.03 1004.80 1004.80 1004.35 1004.33 1003.96 1004.20 1004.69 1004.89 1005.29 1005.61 1005.67 1005.59 1005.44 1004.98 1004.37 1003.69 1002.08 998.91 998.65 998.63 998.21 997.93 997.02 997.02 996.71 996.13 995.90 995.49 995.51 995.76 996.03 996.01
1007.08 1007.22 1007.09 1006.97 1006.97 1006.81 1006.49 1006.06 1005.57 1005.03 1004.53 1004.06 1003.51 1002.10 1002.58 1003.00 1003.00 1002.61 1002.68 1002.62 1003.17 1003.79 1003.52 1003.43 1003.67 1003.95 1004.04 1004.36 1004.83 1005.18 1005.32 1005.55 1005.31 1005.05 1004.50 1003.76 1002.94 1001.79 999.22 998.49 997.84 997.50 997.62 997.03 996.49 996.17 995.49 995.19 994.65 994.49 994.53 994.66 995.12 995.49
1006.41 1006.47 1006.38 1006.33 1006.31 1006.15 1005.96 1005.51 1005.02 1004.32 1004.02 1003.70 1003.49 1002.80 1002.87 1002.64 1002.37 1002.39 1002.81 1003.24 1003.58 1002.81 1002.36 1002.40 1002.65 1003.43 1003.80 1004.20 1004.57 1005.06 1005.16 1004.89 1004.58 1003.77 1003.43 1002.74 1001.60 999.82 998.60 998.01 997.60 997.25 996.77 996.20 995.90 995.11 994.66 994.15 993.88 993.83 993.76 993.68 994.22 994.91
1005.64 1005.65 1005.64 1005.67 1005.66 1005.55 1005.41 1005.01 1004.48 1003.93 1003.48 1003.55 1003.32 1003.05 1002.67 1002.44 1002.35 1002.38 1002.56 1002.71 1002.94 1002.74 1001.92 1001.32 1001.75 1002.77 1003.16 1003.46 1003.95 1004.21 1004.25 1004.09 1003.75 1002.84 1003.10 1002.19 1000.90 999.04 998.38 997.81 997.36 997.03 996.53 996.09 995.67 994.76 993.93 993.34 993.37 993.56 993.59 993.62 993.97 994.62
1004.82 1004.91 1004.95 1005.02 1005.01 1004.93 1004.83 1004.50 1004.06 1003.78 1003.36 1003.40 1003.50 1003.23 1002.77 1002.41 1002.18 1002.11 1002.02 1002.03 1001.81 1001.06 1000.70 1000.88 1001.28 1001.69 1002.43 1002.53 1003.08 1003.43 1003.68 1003.36 1002.81 1002.18 1002.33 1001.60 1000.30 999.17 998.39 998.01 997.66 997.35 997.00 996.46 995.62 994.72 993.99 993.42 993.50 994.02 994.43 994.65 994.78 995.25
1004.06 1004.21 1004.28 1004.34 1004.33 1004.28 1004.18 1003.92 1003.63 1003.29 1003.28 1003.13 1003.03 1002.71 1002.20 1001.91 1001.40 1000.91 1000.51 1000.40 1000.32 1000.08 1000.37 1000.78 1001.52 1002.01 1002.43 1002.71 1003.28 1003.47 1003.43 1002.83 1001.66 1001.93 1001.46 1001.29 1000.46 999.47 998.90 998.51 998.05 997.93 997.84 997.22 995.90 994.83 994.27 994.55 994.86 995.15 996.03 996.38 996.59 997.26
1003.33 1003.47 1003.56 1003.61 1003.61 1003.58 1003.47 1003.27 1003.18 1003.06 1002.61 1002.53 1002.11 1001.71 1001.27 1000.69 1000.05 999.26 998.85 998.73 998.84 999.21 999.89 1000.53 1001.39 1001.83 1002.31 1002.78 1003.12 1003.37 1002.83 1002.39 1002.20 1002.12 1001.64 1001.55 1000.95 1000.56 1000.08 999.46 998.90 998.83 998.91 998.50 997.75 996.88 996.38 996.31 996.59 997.02 997.64 997.90 998.26 999.08
1002.66 1002.79 1002.76 1002.82 1002.84 1002.78 1002.66 1002.50 1002.21 1001.97 1001.97 1001.87 1001.13 1000.15 999.86 999.32 999.06 998.71 998.29 998.35 998.58 999.06 999.74 1000.54 1001.23 1001.64 1002.14 1002.57 1002.63 1002.69 1002.68 1002.54 1002.10 1002.31 1002.49 1002.17 1001.95 1001.69 1001.16 1000.66 1000.29 999.97 999.86 999.63 999.14 998.73 998.44 998.34 998.58 999.16 999.51 999.70 1000.07 1000.69
1002.08 1002.13 1002.10 1002.01 1002.06 1001.40 1001.46 1001.82 1001.30 1001.30 1001.46 1000.86 1000.41 999.72 999.20 999.14 999.18 999.05 998.85 998.95 998.96 999.29 999.74 1000.23 1001.03 1001.50 1001.54 1001.71 1002.07 1002.14 1002.17 1002.14 1002.61 1002.87 1002.93 1002.79 1002.70 1002.51 1002.14 1001.81 1001.41 1001.16 1000.89 1000.61 1000.30 1000.19 1000.15 1000.14 1000.50 1001.05 1001.18 1001.52 1002.24 1002.65
1001.57 1001.67 1001.60 1001.67 1001.00 1000.16 1000.51 1000.97 1000.57 1000.45 1000.38 1000.03 999.64 999.07 999.10 998.90 999.12 999.28 999.24 999.41 999.15 999.69 999.99 1000.19 1000.53 1000.55 1000.77 1001.27 1001.54 1001.40 1002.15 1002.70 1003.07 1003.38 1003.48 1003.42 1003.35 1003.02 1002.93 1002.58 1002.36 1002.18 1002.02 1001.85 1001.64 1001.54 1001.63 1001.81 1002.09 1002.44 1002.75 1003.61 1003.96 1004.47
1001.24 1001.25 1001.57 1001.35 1000.71 1000.06 1000.51 1000.48 999.79 999.74 999.57 999.51 999.41 999.05 998.90 998.65 999.05 999.23 999.40 999.45 999.64 999.82 999.68 999.72 999.85 1000.41 1000.78 1001.10 1001.50 1002.13 1002.62 1003.12 1003.57 1003.88 1004.02 1004.04 1003.97 1003.62 1003.61 1003.56 1003.43 1003.41 1003.21 1003.15 1003.13 1003.19 1003.31 1003.42 1003.86 1004.51 1004.94 1005.41 1005.97 1006.70
1000.60 1000.97 1001.07 1001.00 1000.80 1000.34 999.24 999.28 999.06 998.73 998.64 998.86 998.94 998.81 999.03 999.11 998.92 999.14 999.30 999.48 999.65 999.69 999.85 1000.04 1000.54 1001.05 1001.60 1001.93 1002.17 1002.31 1002.77 1003.29 1003.92 1004.34 1004.57 1004.56 1004.41 1004.25 1004.45 1004.44 1004.41 1004.34 1004.30 1004.33 1004.41 1004.62 1004.90 1005.22 1005.70 1006.25 1006.72 1007.20 1007.70 1008.49
1000.04 1000.21 1000.20 1000.26 1000.69 999.77 998.47 997.78 997.47 997.89 998.15 998.41 998.68 998.98 999.07 999.32 999.41 999.56 999.86 999.95 1000.10 1000.25 1000.75 1001.25 1001.84 1002.30 1002.51 1002.65 1002.52 1002.49 1002.86 1003.41 1003.97 1004.47 1004.80 1004.98 1004.94 1004.91 1005.16 1005.11 1005.19 1005.33 1005.38 1005.61 1005.96 1006.33 1006.58 1006.91 1007.41 1007.72 1008.13 1008.58 1009.04 1009.93
1000.08 999.12 999.16 999.55 999.58 999.16 997.63 996.73 997.04 997.35 997.77 998.21 998.52 998.89 999.35 999.49 999.74 1000.06 1000.29 1000.19 1000.99 1001.68 1002.17 1002.39 1002.65 1002.79 1002.79 1002.80 1002.79 1002.81 1003.27 1003.56 1003.94 1004.29 1004.69 1005.14 1005.33 1005.42 1005.76 1005.98 1006.15 1006.36 1006.65 1007.05 1007.35 1007.83 1008.15 1008.74 1009.32 1009.61 1009.88 1010.32 1010.85 1011.45
999.19 998.57 998.22 998.94 998.26 997.82 996.90 996.39 996.72 997.18 997.70 998.07 998.66 998.79 999.26 999.63 999.81 999.94 1000.33 1001.22 1002.08 1002.55 1002.66 1002.76 1002.94 1002.95 1003.03 1003.08 1003.21 1003.25 1003.49 1003.81 1004.21 1004.64 1005.03 1005.37 1005.82 1006.23 1006.64 1006.95 1007.19 1007.64 1008.04 1008.42 1008.72 1009.11 1009.61 1010.13 1010.55 1010.89 1011.14 1011.79 1012.43 1013.08
999.22 998.26 997.58 997.86 997.54 996.95 996.98 996.34 996.79 997.25 997.84 998.36 998.49 998.78 999.17 999.49 999.51 999.61 1000.95 1001.82 1002.59 1002.78 1002.84 1002.88 1002.89 1003.07 1003.40 1003.63 1003.78 1003.90 1003.97 1004.42 1005.01 1005.45 1005.81 1006.24 1006.75 1007.23 1007.60 1008.06 1008.48 1008.74 1009.13 1009.80 1010.15 1010.53 1010.92 1011.45 1011.88 1012.20 1012.75 1013.40 1014.05 1014.81
998.71 997.72 997.21 996.99 996.85 997.13 996.95 996.89 996.80 997.20 997.61 998.18 998.55 998.77 999.09 999.29 999.52 1000.10 1001.24 1002.26 1002.89 1003.02 1003.10 1003.08 1003.24 1003.53 1003.92 1004.18 1004.37 1004.62 1004.92 1005.18 1005.71 1006.31 1006.80 1007.23 1007.83 1008.54 1008.94 1009.33 1009.71 1009.98 1010.29 1010.74 1011.18 1011.59 1012.12 1012.66 1013.17 1013.78 1014.44 1015.14 1015.91 1016.64
997.54 997.25 996.80 996.71 996.72 996.98 997.09 997.08 997.11 997.50 997.98 998.28 998.65 998.95 999.04 999.19 999.94 1000.60 1001.64 1002.62 1003.06 1003.28 1003.45 1003.61 1003.65 1004.13 1004.45 1004.81 1005.25 1005.54 1005.66 1005.96 1006.62 1007.31 1008.26 1008.59 1009.03 1009.50 1010.10 1010.61 1010.90 1011.24 1011.53 1011.90 1012.72 1013.41 1014.26 1014.70 1015.15 1015.52 1015.97 1016.48 1017.15 1018.04
996.76 996.60 996.44 996.13 996.44 996.51 996.98 997.40 997.56 997.78 998.11 998.74 999.10 999.06 999.24 999.88 1000.79 1001.65 1002.10 1002.60 1003.12 1003.48 1003.74 1003.98 1004.32 1004.88 1005.46 1005.81 1006.09 1006.56 1007.02 1007.14 1007.57 1008.38 1009.36 1009.67 1010.05 1010.31 1010.93 1011.55 1012.05 1012.55 1012.59 1013.08 1013.78 1014.62 1015.40 1016.05 1016.64 1017.19 1017.71 1018.17 1018.62 1019.30
996.34 996.17 995.80 995.40 995.73 996.25 996.81 997.27 997.41 997.90 998.55 998.98 999.39 999.82 1000.20 1001.20 1002.13 1002.70 1002.94 1003.18 1003.40 1003.75 1004.11 1004.46 1004.81 1005.41 1006.19 1006.87 1007.43 1007.82 1008.14 1008.53 1009.29 1010.21 1010.64 1010.98 1011.47 1011.79 1012.15 1012.80 1013.24 1013.54 1013.50 1014.04 1014.80 1015.49 1016.32 1017.20 1017.89 1018.49 1019.07 1019.56 1019.97 1020.42
995.53 995.55 995.95 995.94 996.12 996.62 997.23 997.50 997.91 998.26 998.36 998.55 999.41 1000.51 1001.43 1002.19 1003.14 1003.53 1003.77 1003.82 1003.75 1004.22 1004.80 1005.39 1005.96 1006.48 1007.18 1007.95 1008.47 1008.87 1009.59 1010.17 1010.72 1011.11 1011.69 1012.64 1013.33 1013.82 1014.25 1014.57 1014.70 1014.70 1015.06 1015.39 1015.86 1016.49 1017.23 1017.90 1018.59 1019.27 1019.88 1020.48 1021.13 1021.59
995.46 995.69 996.12 996.97 997.43 998.06 998.52 998.55 998.60 998.70 998.82 998.89 1000.33 1001.93 1003.16 1003.86 1004.03 1004.18 1004.47 1004.57 1004.76 1005.01 1005.67 1006.45 1007.31 1007.68 1008.28 1008.84 1009.35 1009.77 1010.17 1010.48 1010.98 1011.90 1012.79 1013.78 1014.62 1015.51 1015.53 1015.69 1016.03 1016.31 1016.51 1016.68 1017.09 1017.51 1018.05 1018.71 1019.45 1020.05 1020.68 1021.15 1021.66 1022.03
996.12 996.20 997.27 998.27 998.71 999.25 999.44 999.36 999.45 999.49 999.40 1000.12 1001.56 1003.09 1004.06 1004.94 1005.43 1005.17 1005.18 1005.32 1005.51 1006.00 1006.53 1007.07 1007.65 1008.26 1008.80 1009.28 1009.92 1010.42 1010.70 1010.97 1011.29 1011.83 1012.75 1013.82 1014.69 1015.59 1016.11 1016.53 1016.87 1017.22 1017.52 1017.82 1018.21 1018.66 1019.06 1019.57 1020.25 1020.85 1021.43 1021.92 1022.40 1022.94
996.15 996.84 997.91 998.82 999.63 999.84 999.76 999.91 999.99 1000.20 1000.42 1001.34 1001.90 1003.04 1004.13 1005.27 1006.08 1006.51 1006.64 1006.35 1006.30 1006.80 1007.30 1007.87 1008.50 1009.05 1009.44 1009.97 1010.46 1010.98 1011.75 1012.20 1012.12 1012.50 1013.05 1013.92 1014.81 1015.58 1016.20 1016.69 1017.13 1017.57 1018.05 1018.51 1019.03 1019.61 1020.02 1020.58 1021.13 1021.71 1022.35 1022.84 1023.32 1023.72
996.77 997.46 998.38 999.35 999.99 1000.20 1000.01 1000.39 1001.12 1001.83 1002.46 1002.94 1003.49 1004.14 1004.59 1005.41 1006.77 1007.64 1007.77 1007.47 1007.21 1007.60 1008.25 1008.75 1009.33 1010.05 1010.42 1010.89 1011.34 1011.78 1012.23 1012.93 1013.36 1013.72 1014.14 1014.82 1015.58 1016.22 1016.71 1017.18 1017.62 1018.06 1018.56 1019.08 1019.61 1020.23 1020.78 1021.29 1021.99 1022.63 1023.14 1023.65 1024.09 1024.37
997.56 997.98 998.65 999.38 1000.02 1000.24 1000.61 1000.84 1001.65 1002.65 1003.26 1003.78 1004.13 1004.63 1005.46 1006.46 1007.78 1008.55 1008.61 1008.37 1008.27 1008.71 1009.45 1010.20 1010.88 1011.37 1011.78 1012.29 1012.86 1013.35 1013.70 1014.07 1014.37 1014.77 1015.24 1015.76 1016.26 1016.85 1017.40 1017.87 1018.26 1018.65 1019.13 1019.70 1020.32 1020.91 1021.60 1022.20 1022.78 1023.29 1023.85 1024.39 1024.75 1025.10
Thickness
5320 5326 5331 5337 5343 5348 5351 5355 5358 5362 5364 5367 5370 5371 5373 5376 5378 5377 5386 5383 5383 5399 5405 5407 5406 5405 5406 5412 5411 5419 5413 5415 5411 5423 5421 5421 5420 5442 5441 5464 5462 5446 5431 5440 5443 5449 5450 5505 5500 5494 5517 5521 5526 5534
5312 5319 5324 5331 5336 5340 5345 5350 5354 5358 5362 5365 5368 5371 5373 5376 5379 5380 5389 5390 5386 5391 5408 5412 5412 5417 5413 5414 5407 5412 5416 5421 5418 5418 5424 5431 5432 5420 5442 5441 5472 5449 5466 5444 5452 5460 5494 5507 5501 5509 5511 5514 5521 5521
5305 5313 5318 5324 5329 5333 5339 5345 5350 5354 5360 5364 5367 5372 5375 5379 5382 5385 5392 5393 5390 5395 5399 5403 5422 5417 5417 5416 5413 5401 5415 5423 5419 5422 5419 5419 5434 5439 5441 5451 5467 5464 5484 5455 5467 5490 5493 5497 5503 5506 5506 5508 5514 5515
5298 5304 5311 5317 5324 5327 5334 5340 5346 5352 5358 5363 5368 5373 5378 5383 5388 5392 5399 5400 5397 5386 5392 5410 5417 5419 5424 5421 5418 5416 5424 5412 5416 5412 5413 5411 5428 5438 5445 5454 5445 5479 5471 5472 5465 5484 5491 5491 5496 5498 5502 5507 5505 5511
5291 5298 5305 5311 5317 5322 5329 5337 5343 5350 5357 5363 5368 5375 5381 5387 5395 5397 5401 5406 5406 5400 5399 5401 5415 5424 5426 5422 5419 5416 5414 5411 5408 5405 5402 5415 5420 5425 5427 5429 5430 5470 5475 5452 5462 5493 5473 5485 5491 5492 5494 5502 5501 5502
5285 5291 5298 5304 5310 5317 5325 5333 5341 5349 5357 5363 5369 5377 5384 5392 5400 5404 5403 5410 5406 5404 5391 5405 5411 5419 5428 5425 5422 5419 5415 5412 5409 5404 5407 5416 5425 5418 5418 5420 5474 5474 5475 5471 5472 5487 5473 5479 5489 5490 5495 5500 5496 5492
5277 5284 5292 5299 5305 5314 5321 5330 5340 5348 5355 5362 5370 5378 5384 5393 5398 5404 5406 5410 5408 5400 5390 5397 5404 5410 5415 5415 5412 5414 5413 5408 5399 5394 5399 5405 5412 5410 5413 5428 5489 5470 5469 5469 5470 5473 5466 5481 5476 5485 5485 5489 5491 5492
5269 5277 5286 5294 5301 5308 5317 5327 5337 5346 5354 5363 5372 5380 5390 5392 5395 5401 5406 5405 5401 5398 5395 5399 5409 5405 5411 5406 5405 5400 5395 5391 5391 5395 5397 5404 5406 5408 5414 5462 5465 5464 5462 5459 5469 5466 5465 5473 5477 5483 5487 5483 5484 5487
5262 5270 5279 5288 5296 5305 5314 5324 5334 5344 5353 5362 5371 5388 5388 5387 5392 5399 5400 5402 5398 5398 5401 5402 5405 5398 5405 5403 5397 5395 5394 5394 5395 5400 5404 5401 5399 5406 5446 5452 5457 5459 5453 5457 5461 5462 5469 5469 5477 5481 5485 5488 5480 5478
5255 5264 5273 5282 5291 5301 5310 5320 5331 5343 5350 5358 5367 5377 5378 5387 5392 5395 5395 5393 5391 5399 5411 5408 5410 5409 5405 5402 5401 5395 5393 5400 5403 5406 5401 5399 5413 5442 5449 5452 5453 5450 5452 5455 5449 5457 5464 5468 5476 5476 5481 5488 5479 5476
5249 5259 5269 5277 5287 5297 5306 5317 5328 5339 5348 5353 5360 5371 5378 5384 5388 5387 5390 5394 5393 5399 5406 5418 5417 5401 5406 5401 5404 5399 5401 5397 5405 5410 5403 5412 5411 5438 5442 5444 5443 5442 5445 5445 5447 5457 5465 5470 5470 5471 5474 5479 5476 5473
5245 5254 5265 5274 5283 5293 5303 5313 5324 5332 5342 5348 5354 5363 5371 5377 5379 5387 5390 5394 5400 5412 5415 5408 5413 5411 5408 5414 5398 5398 5406 5394 5410 5415 5414 5416 5410 5437 5438 5438 5433 5431 5429 5431 5440 5450 5459 5464 5461 5457 5456 5458 5460 5460
5241 5250 5262 5271 5281 5291 5301 5311 5320 5329 5337 5345 5352 5360 5371 5375 5387 5392 5396 5410 5406 5412 5413 5417 5413 5406 5401 5399 5396 5391 5389 5389 5422 5394 5408 5400 5419 5427 5426 5423 5422 5417 5413 5416 5432 5440 5449 5446 5446 5442 5433 5433 5436 5433
5237 5249 5260 5270 5280 5290 5299 5309 5317 5325 5336 5345 5356 5369 5374 5379 5388 5403 5418 5415 5414 5416 5415 5412 5406 5404 5396 5391 5392 5389 5400 5411 5395 5392 5399 5395 5408 5404 5404 5406 5407 5402 5398 5399 5406 5412 5417 5418 5418 5417 5413 5415 5417 5414
5235 5247 5260 5271 5280 5289 5299 5308 5318 5327 5335 5344 5358 5378 5378 5393 5399 5408 5418 5417 5418 5416 5408 5403 5398 5399 5396 5391 5392 5402 5394 5409 5390 5382 5393 5394 5390 5385 5382 5383 5382 5383 5384 5384 5386 5391 5396 5400 5401 5399 5398 5398 5399 5397
5234 5247 5258 5269 5280 5295 5303 5308 5320 5326 5332 5346 5358 5371 5381 5388 5391 5395 5400 5398 5407 5405 5406 5403 5395 5391 5390 5398 5393 5388 5403 5386 5394 5385 5381 5378 5376 5369 5369 5368 5370 5370 5373 5375 5378 5381 5383 5386 5385 5382 5382 5381 5378 5378
5234 5244 5256 5267 5283 5299 5306 5310 5321 5329 5334 5348 5358 5370 5376 5380 5384 5384 5391 5390 5401 5397 5395 5397 5394 5402 5401 5396 5403 5397 5390 5386 5379 5372 5369 5368 5366 5364 5359 5360 5361 5362 5364 5366 5368 5368 5369 5370 5370 5371 5370 5364 5364 5361
5231 5243 5252 5264 5281 5298 5302 5309 5324 5330 5341 5347 5353 5365 5376 5379 5380 5379 5382 5388 5392 5391 5399 5401 5404 5399 5384 5405 5386 5383 5370 5368 5361 5359 5359 5357 5357 5356 5354 5351 5351 5351 5354 5353 5354 5355 5355 5356 5355 5352 5349 5347 5343 5338
5234 5243 5255 5267 5279 5292 5312 5318 5325 5337 5342 5344 5349 5361 5367 5370 5373 5379 5382 5385 5388 5391 5387 5386 5388 5384 5381 5373 5373 5366 5366 5356 5351 5350 5348 5348 5348 5347 5344 5342 5342 5346 5347 5346 5347 5346 5344 5344 5340 5336 5332 5329 5326 5322
5240 5253 5264 5274 5280 5297 5317 5330 5336 5339 5342 5343 5348 5355 5359 5361 5368 5365 5368 5375 5378 5371 5363 5366 5364 5359 5358 5354 5358 5356 5357 5348 5347 5342 5343 5340 5341 5341 5339 5339 5338 5338 5338 5337 5334 5332 5330 5328 5326 5324 5322 5319 5316 5309
5245 5264 5275 5282 5290 5299 5322 5332 5336 5341 5341 5343 5345 5352 5350 5356 5358 5361 5363 5369 5359 5353 5350 5350 5347 5345 5346 5347 5349 5350 5346 5344 5339 5341 5338 5336 5335 5335 5333 5332 5332 5331 5329 5326 5324 5319 5317 5311 5307 5306 5304 5302 5298 5293
5253 5271 5285 5288 5302 5310 5328 5338 5337 5339 5339 5340 5344 5350 5345 5345 5348 5352 5357 5347 5341 5341 5342 5342 5340 5340 5341 5343 5342 5342 5340 5338 5336 5335 5333 5332 5329 5326 5323 5322 5321 5318 5315 5313 5312 5309 5306 5302 5298 5296 5293 5287 5281 5275
5258 5277 5291 5290 5302 5313 5316 5334 5336 5338 5332 5337 5344 5346 5345 5347 5351 5357 5341 5342 5336 5336 5337 5337 5339 5338 5336 5334 5334 5335 5335 5333 5329 5327 5326 5323 5319 5316 5313 5310 5308 5305 5303 5298 5297 5294 5292 5288 5284 5281 5276 5270 5264 5258
5264 5280 5290 5300 5308 5300 5319 5322 5335 5337 5337 5339 5339 5341 5345 5345 5349 5347 5339 5335 5331 5331 5333 5336 5334 5333 5331 5330 5330 5330 5328 5327 5324 5320 5318 5314 5308 5302 5300 5297 5294 5293 5291 5288 5285 5282 5279 5275 5271 5265 5259 5253 5246 5239
5279 5284 5290 5287 5306 5303 5307 5319 5330 5333 5327 5336 5338 5335 5338 5347 5338 5338 5329 5330 5327 5328 5328 5328 5330 5328 5328 5326 5323 5322 5322 5321 5316 5311 5302 5300 5296 5293 5289 5285 5283 5280 5278 5274 5267 5259 5252 5250 5246 5244 5242 5238 5233 5224
5277 5280 5293 5303 5305 5313 5318 5308 5315 5319 5326 5323 5329 5337 5337 5330 5320 5326 5333 5327 5325 5324 5323 5323 5324 5322 5319 5317 5316 5312 5309 5310 5308 5302 5293 5291 5289 5286 5282 5278 5274 5268 5267 5264 5258 5251 5245 5239 5234 5229 5225 5222 5217 5212
5273 5288 5310 5320 5325 5329 5318 5323 5331 5323 5314 5310 5321 5323 5321 5306 5303 5318 5315 5314 5316 5315 5316 5316 5314 5311 5306 5302 5300 5298 5296 5295 5290 5283 5279 5277 5274 5274 5273 5269 5265 5261 5261 5256 5250 5243 5236 5229 5223 5218 5213 5208 5202 5197
5300 5308 5293 5309 5314 5322 5309 5312 5313 5310 5323 5334 5323 5308 5305 5300 5306 5305 5303 5305 5310 5308 5306 5302 5299 5298 5295 5290 5286 5284 5280 5277 5274 5272 5268 5262 5257 5254 5251 5249 5248 5248 5245 5243 5239 5233 5227 5221 5215 5208 5202 5200 5192 5185
5300 5308 5304 5287 5298 5298 5298 5305 5312 5317 5317 5325 5303 5295 5294 5289 5291 5291 5292 5295 5296 5297 5295 5291 5286 5286 5283 5280 5277 5275 5273 5272 5270 5260 5257 5252 5245 5238 5239 5238 5236 5234 5232 5231 5228 5223 5218 5213 5207 5201 5194 5189 5183 5176
5296 5304 5292 5283 5274 5292 5295 5299 5305 5301 5305 5301 5291 5284 5278 5273 5270 5279 5284 5286 5288 5288 5287 5286 5284 5282 5280 5278 5273 5270 5270 5267 5265 5263 5257 5250 5244 5238 5233 5230 5228 5225 5222 5219 5216 5212 5209 5204 5199 5192 5186 5178 5171 5164
5301 5298 5292 5287 5280 5288 5294 5295 5295 5295 5293 5289 5288 5282 5277 5273 5270 5267 5268 5277 5283 5282 5282 5281 5279 5278 5276 5273 5268 5265 5260 5257 5258 5256 5253 5247 5241 5235 5231 5227 5223 5220 5216 5212 5207 5202 5198 5192 5187 5181 5173 5166 5159 5150
5296 5290 5280 5276 5284 5287 5292 5293 5287 5286 5280 5277 5279 5279 5276 5270 5264 5263 5264 5269 5280 5281 5277 5274 5270 5265 5265 5262 5259 5257 5254 5250 5247 5245 5242 5237 5232 5227 5224 5220 5217 5214 5209 5204 5199 5194 5188 5184 5177 5170 5163 5155 5148 5141
5291 5292 5290 5283 5284 5290 5289 5293 5289 5283 5281 5284 5289 5284 5274 5266 5261 5259 5260 5263 5268 5268 5263 5257 5253 5252 5250 5248 5244 5242 5240 5238 5236 5234 5231 5227 5224 5220 5216 5212 5209 5205 5201 5196 5190 5185 5179 5173 5167 5160 5152 5145 5138 5130